Weather in Stal'noy Kon'

Russia / Oryol Oblast     53°02′17″N   36°07′38″E
temp.,
°C
wind,
m/s
gust,
m/s
humid.,
%
clouds,
%
prec.,
mm/h
press.,
hPa
HPBL,
m
8 march, mon
mon800:00−4wsw51286100 0.0 1002351
03:00−6wsw5128998 0.0 1003302
06:00−6w5139495 0.1 1002399
09:00−6w6129294 0.1 1003632
12:00−4w6108693 0.0 1005949
15:00−3wnw578295 0.1 10061015
18:00−6wnw348890 0.1 100759
21:00−8n229494 0.4 100923
9 march, tue
tue900:00−12n128988 0.0 101021
03:00−12nnw239275 0.0 101231
06:00−11nnw3496100 0.1 1013122
09:00−12n479496 0.3 1016332
12:00−11nnw478987 0.0 1017526
15:00−9nnw478393 0.0 1019773
18:00−12nnw238982 0.0 101921
21:00−14nnw239488 0.1 102231
10 march, wed
wed1000:00−17nnw349233 0.0 102439
03:00−19nnw229716 0.0 102520
06:00−21nnw121000 0.0 102720
09:00−18n11951 0.0 102856
12:00−14nne228991 0.1 1028307
15:00−13nne348796 0.2 1028469
18:00−17ne349166 0.0 102844
21:00−21ene349133 0.0 103132
11 march, thu
thu1100:00−23e22890 0.0 103220
03:00−24ene22860 0.0 103420
06:00−24ene128545 0.0 103420
09:00−20ne118150 0.0 103529
12:00−15sse01740 0.0 1034221
15:00−13s11730 0.0 1033284
18:00−17s22830 0.0 103320
21:00−19sse34830 0.0 103326
12 march, fri
fri1200:00−20sse44780 0.0 103354
03:00−20sse48810 0.0 1031109
06:00−17sse6138318 0.0 1029219
09:00−13s7158059 0.0 1027359
12:00−8s91581100 0.0 1025604
15:00−6s101678100 0.0 1022879
18:00−6s111891100 0.3 1020986
21:00−6s111993100 1.0 10191023